Weather History for PHOG - June, 2012

Change the Weather History Date:

Saturday, June 30, 2012

  Actual Average Record
Temperature  
Mean Temperature 78 °F 79 °F  
Max Temperature 84 °F 87 °F 91 °F (1996)
Min Temperature 71 °F 70 °F 60 °F (1975)
Degree Days  
Heating Degree Days 0 0  
Month to date heating degree days 0 0  
Since 1 June heating degree days 0 0  
Since 1 July heating degree days 0 0  
Cooling Degree Days 13 14  
Month to date cooling degree days 372 388  
Year to date cooling degree days 1697 1647  
Since 1 June cooling degree days 372 388  
Growing Degree Days 28 (Base 50)    
Moisture  
Dew Point 64 °F    
Average Humidity 65    
Maximum Humidity 79    
Minimum Humidity 51    
Precipitation  
Precipitation T in 0.01 in 0.20 in (1967)
Month to date precipitation 0.40 0.20  
Year to date precipitation 4.02 9.70  
Snow  
Snow 0.00 in - - ()
Month to date snowfall 0.0  
Since 1 June snowfall 0.0  
Since 1 July snowfall 0.0  
Snow Depth 0.00 in    
Sea Level Pressure  
Sea Level Pressure 30.05 in    
Wind  
Wind Speed 19 mph (NE)    
Max Wind Speed 31 mph    
Max Gust Speed 36 mph    
Visibility 10 miles    
Events      
T = Trace of Precipitation, MM = Missing Value Source: NWS Daily Summary

Daily Weather History Graph

Daily Weather History Graph

Search for Another Location

Airport or City:

Trip Planner

Search our weather history database for the weather conditions in past years. The results will help you decide how hot, cold, wet, or windy it might be!

Date:

Astronomy

Jun. 30, 2012 Rise Set
Actual Time 5:48 AM HST 7:10 PM HST
Civil Twilight 5:23 AM HST 7:35 PM HST
Nautical Twilight 4:53 AM HST 8:05 PM HST
Astronomical Twilight 4:23 AM HST 8:35 PM HST
Moon 4:24 PM HST 2:44 AM HST
Length of Visible Light 14h 12m
Length of Day
13h 22m
Waxing Gibbous, 89% of the Moon is Illuminated
Jun 30
Waxing Gibbous
Jul 3
Full
Jul 10
Last Quarter
Jul 18
New
Jul 25
First Quarter

Hourly Weather History & Observations

Time (HST) Temp. Heat Index Dew Point Humidity Pressure Visibility Wind Dir Wind Speed Gust Speed Precip Events Conditions
2:54 AM 71.1 °F - 63.0 °F 75% 30.07 in 10.0 mi NE 13.8 mph - 0.00 in   Scattered Clouds
3:54 AM 71.1 °F - 62.1 °F 73% 30.07 in 10.0 mi NE 9.2 mph - N/A   Clear
4:54 AM 71.1 °F - 63.0 °F 75% 30.06 in 10.0 mi NE 11.5 mph - N/A   Partly Cloudy
5:54 AM 72.0 °F - 64.0 °F 76% 30.07 in 10.0 mi NE 15.0 mph - N/A   Clear
6:54 AM 73.9 °F - 64.0 °F 71% 30.08 in 10.0 mi NE 12.7 mph - N/A   Clear
7:54 AM 77.0 °F - 64.0 °F 64% 30.09 in 10.0 mi NE 12.7 mph 18.4 mph N/A   Clear
8:54 AM 79.0 °F - 64.0 °F 60% 30.08 in 10.0 mi NE 23.0 mph - N/A   Partly Cloudy
9:54 AM 82.0 °F 83.1 °F 63.0 °F 52% 30.07 in 10.0 mi NE 20.7 mph 28.8 mph N/A   Partly Cloudy
10:54 AM 82.9 °F 84.0 °F 63.0 °F 51% 30.07 in 10.0 mi NE 21.9 mph - N/A   Partly Cloudy
11:54 AM 82.9 °F 84.4 °F 64.0 °F 53% 30.06 in 10.0 mi NE 25.3 mph 31.1 mph N/A   Scattered Clouds
12:54 PM 82.9 °F 85.0 °F 66.0 °F 56% 30.04 in 10.0 mi NE 26.5 mph 33.4 mph N/A   Scattered Clouds
1:54 PM 82.9 °F 85.0 °F 66.0 °F 56% 30.01 in 10.0 mi NE 29.9 mph 34.5 mph N/A   Scattered Clouds
2:54 PM 82.0 °F 83.8 °F 64.9 °F 56% 30.00 in 10.0 mi NE 27.6 mph 35.7 mph N/A   Scattered Clouds
3:54 PM 82.0 °F 83.8 °F 64.9 °F 56% 30.00 in 10.0 mi NE 24.2 mph 32.2 mph N/A   Scattered Clouds
4:54 PM 81.0 °F 82.7 °F 64.9 °F 58% 29.99 in 10.0 mi NE 21.9 mph 27.6 mph N/A   Scattered Clouds
5:54 PM 79.0 °F - 63.0 °F 58% 30.00 in 10.0 mi NE 18.4 mph 23.0 mph N/A   Partly Cloudy
6:54 PM 75.9 °F - 64.0 °F 67% 30.01 in 10.0 mi ENE 10.4 mph - N/A   Scattered Clouds
7:54 PM 75.0 °F - 64.0 °F 69% 30.03 in 10.0 mi NE 15.0 mph - N/A   Clear
8:54 PM 73.9 °F - 64.0 °F 71% 30.04 in 10.0 mi ENE 9.2 mph - N/A   Mostly Cloudy
9:54 PM 73.0 °F - 63.0 °F 71% 30.05 in 10.0 mi ENE 12.7 mph 17.3 mph N/A   Mostly Cloudy
10:54 PM 73.0 °F - 64.0 °F 73% 30.06 in 10.0 mi NE 11.5 mph - N/A   Mostly Cloudy
11:54 PM 72.0 °F - 64.9 °F 78% 30.05 in 10.0 mi NE 10.4 mph - 0.00 in   Overcast